Wind_Speed
3 5 4 4 8 13 17 18 10 21 28 30 24 28 30 35 37 38 35 31 31 31 32 34 36 37 39 38 38 41 40 39 42 40 43 41 39 33 25 23 23 19 16 13
3 8 2 2 10 15 19 20 19 17 26 25 19 22 26 33 37 38 35 30 30 29 32 33 35 38 38 38 39 39 39 39 42 42 41 42 44 42 37 32 30 27 23 19
2 8 3 3 10 16 20 23 17 24 27 26 19 22 29 34 38 38 33 29 28 29 31 32 34 37 37 37 37 37 37 38 40 41 43 43 42 40 38 38 35 34 30 26
3 6 1 6 10 18 22 20 13 25 23 23 21 19 25 30 35 35 32 28 26 27 28 30 31 33 34 35 35 35 37 38 39 40 41 41 41 41 40 39 38 37 34 37
4 7 6 3 12 19 21 16 18 25 23 21 19 16 19 27 33 34 30 24 22 24 26 28 29 31 32 33 34 35 37 39 39 40 41 42 43 44 43 41 39 41 40 35
7 3 4 5 14 18 17 6 26 26 25 23 21 19 24 29 33 32 27 22 20 22 23 25 27 29 31 32 33 35 37 39 38 39 41 42 45 45 45 43 41 41 40 38
8 3 5 7 15 15 11 15 25 25 23 21 20 22 26 28 29 30 26 20 18 19 21 24 26 27 29 31 32 34 35 35 36 39 41 42 44 45 46 44 42 41 39 38
6 3 4 12 14 11 15 18 22 23 22 20 17 17 20 24 28 29 22 16 14 17 19 22 24 26 28 29 30 31 31 32 34 37 39 40 42 43 45 42 41 42 42 41
5 7 12 13 12 13 14 16 20 22 22 20 17 16 19 23 27 29 23 16 14 14 17 20 22 24 26 28 28 28 28 29 33 36 37 38 41 43 45 44 43 46 47 46
9 8 10 11 10 11 12 14 18 22 22 20 17 16 17 22 27 27 23 16 13 11 15 17 20 22 25 26 27 26 26 28 32 34 36 38 40 42 44 47 46 47 48 47
9 9 9 8 9 10 11 12 16 21 22 19 17 16 17 21 25 27 24 16 12 9 13 15 18 20 22 23 24 25 25 28 31 33 34 37 39 43 45 46 48 46 48 46
8 8 8 7 8 8 10 12 14 19 21 19 18 16 18 21 24 26 25 16 12 8 11 13 16 18 20 21 22 23 23 26 29 31 33 35 38 41 42 42 45 44 42 42
6 7 6 7 7 7 8 11 13 17 20 20 18 17 18 20 22 25 24 18 11 7 8 12 14 16 18 19 20 21 21 25 27 29 31 33 36 38 40 40 41 42 41 38
6 5 6 6 6 6 7 9 11 14 18 20 18 16 17 19 20 23 24 19 12 7 5 11 12 13 15 17 18 19 19 22 24 27 29 30 33 36 37 37 38 40 40 37
5 5 5 6 6 6 7 8 10 12 16 19 18 15 15 17 19 21 23 19 13 8 3 8 9 10 12 15 15 17 17 19 22 24 26 28 31 33 35 36 37 38 38 35
7 6 6 6 6 5 6 7 8 10 13 16 17 16 16 18 20 20 20 19 14 9 5 3 7 8 10 12 13 15 15 17 20 21 23 25 27 29 32 33 34 35 35 37
10 8 7 6 5 5 5 6 7 8 10 13 15 15 15 17 20 18 19 20 17 11 7 2 5 7 8 10 10 12 13 14 17 18 19 21 24 26 28 30 31 33 34 34
12 9 8 6 6 4 5 5 6 7 8 11 13 13 14 16 17 18 18 20 20 14 8 4 5 6 7 7 8 9 11 11 14 15 16 18 20 23 25 28 29 31 32 32
11 10 8 7 6 5 5 4 6 6 7 9 10 12 13 15 17 20 20 19 18 15 9 6 6 6 7 6 5 6 7 8 10 12 13 14 17 20 22 24 26 28 29 29
10 10 9 8 6 6 5 4 5 5 6 8 9 11 14 15 17 19 21 21 19 17 12 6 5 8 7 6 5 4 4 5 6 8 10 11 13 15 18 20 23 24 26 27
10 11 9 8 8 7 6 6 5 4 5 7 8 9 12 14 16 17 18 19 18 17 14 10 6 8 8 8 7 5 3 2 3 4 6 7 8 10 13 15 18 20 22 24
9 10 10 9 9 8 7 6 6 5 3 4 6 7 10 12 15 19 21 20 19 18 16 12 8 7 11 10 9 8 5 4 3 3 3 4 4 6 8 9 12 15 18 19
8 9 10 10 10 9 7 7 7 6 4 4 5 7 8 9 11 14 17 18 18 19 19 16 11 8 7 14 11 10 9 7 6 5 4 4 3 2 4 5 6 8 11 14
8 8 11 11 10 9 9 8 7 7 6 5 4 6 7 9 10 14 17 21 21 20 19 18 13 9 9 9 16 13 12 10 8 7 7 6 5 4 2 1 2 3 4 6
8 9 10 11 11 11 10 9 8 7 7 5 4 4 5 7 9 12 14 19 20 21 21 20 18 13 10 11 13 18 16 13 12 10 9 9 8 7 6 4 2 1 1 1
7 7 10 13 13 13 12 10 8 8 8 7 6 4 5 6 7 10 13 16 19 22 21 20 18 16 13 10 12 15 19 18 15 13 12 11 11 10 9 8 6 5 3 2
8 8 11 13 13 13 12 10 9 9 10 8 7 6 6 5 7 8 11 13 17 20 22 23 20 19 16 13 11 13 17 21 20 16 15 14 13 13 12 11 10 8 7 6
Wind_Direction
13 1 346 1 350 348 340 337 329 331 334 344 354 345 351 352 352 0 3 6 14 18 15 12 16 17 18 15 17 21 22 24 29 28 29 29 33 28 26 18 12 10 9 3
9 358 353 331 355 348 339 334 332 334 343 349 353 340 350 351 356 3 5 3 16 17 16 14 16 20 18 18 20 22 24 27 32 31 32 33 34 34 30 22 14 3 358 347
325 347 320 293 347 343 336 331 334 346 346 347 360 350 355 351 359 359 2 3 16 19 17 15 16 19 18 19 20 21 25 27 33 33 34 34 33 33 34 31 27 26 27 26
328 339 310 327 335 342 337 334 338 350 346 349 358 0 349 354 358 358 3 2 13 23 17 17 17 19 18 19 20 22 26 26 32 34 34 34 33 33 32 32 32 33 29 35
321 303 286 315 341 342 335 334 342 346 350 352 357 357 353 357 359 0 0 360 12 23 19 17 17 20 19 20 20 24 28 27 29 34 33 34 35 34 33 33 35 38 40 36
321 287 220 321 339 341 338 331 342 343 352 351 355 359 2 1 1 0 1 357 15 27 20 21 20 20 21 21 21 25 29 29 28 33 35 33 36 34 33 34 36 39 43 43
326 289 271 299 338 343 357 332 332 343 353 354 357 360 358 354 359 2 1 2 16 27 21 23 21 21 22 23 22 26 29 30 31 35 34 33 35 34 32 32 37 44 48 51
318 288 304 322 327 334 335 337 334 344 353 358 356 354 354 354 0 4 4 6 15 32 25 25 24 23 25 24 25 28 30 32 37 39 37 34 35 37 37 35 39 47 51 53
298 289 300 307 316 323 339 339 337 341 353 359 356 354 356 360 4 5 5 11 11 38 29 27 25 25 27 28 28 30 33 37 40 41 39 35 36 40 41 42 44 47 49 53
315 312 303 309 310 324 337 343 336 341 353 359 354 354 358 2 6 8 8 12 7 42 38 31 29 27 28 29 31 31 35 41 43 43 38 35 37 41 43 44 46 51 53 53
313 307 298 302 310 327 338 342 339 340 351 359 356 353 358 5 6 8 12 8 7 33 47 36 33 31 30 31 33 33 37 42 44 43 38 36 38 42 44 44 45 49 58 57
313 313 298 305 315 330 340 340 340 340 348 356 360 356 359 2 6 10 12 8 6 15 57 45 38 34 34 33 34 36 39 43 44 44 40 37 39 42 44 47 49 49 56 62
309 309 300 301 312 332 342 338 341 342 345 354 359 2 359 0 5 10 8 8 8 358 67 58 44 36 36 37 37 39 41 44 45 45 43 40 41 43 45 46 49 52 55 61
303 305 305 301 312 331 342 338 343 343 345 352 357 5 358 2 2 9 9 10 13 360 63 71 56 44 39 39 38 40 41 45 46 46 45 42 42 45 45 47 50 53 56 59
291 297 303 302 306 327 334 336 343 346 346 351 353 4 5 1 5 9 12 7 2 7 17 84 68 54 47 48 42 44 43 46 47 47 46 44 42 43 45 45 48 52 54 58
285 285 287 294 296 317 323 330 346 347 342 347 351 1 5 4 7 3 6 11 4 354 351 123 94 72 55 52 47 48 47 49 50 48 48 48 46 44 46 46 48 51 54 56
274 270 277 282 281 298 310 330 341 343 341 345 353 2 8 5 3 1 6 7 15 6 344 190 125 95 73 61 55 57 55 55 55 52 52 51 51 49 47 49 50 51 53 56
266 258 265 263 265 290 303 323 326 338 340 350 352 4 8 7 3 11 8 8 9 13 353 300 176 129 98 75 63 62 63 60 62 58 52 53 53 53 50 48 50 52 53 54
244 250 252 250 258 272 285 306 315 334 336 349 358 5 7 7 8 9 8 10 7 359 355 337 231 166 130 109 83 74 73 70 69 66 58 54 53 54 52 51 49 51 54 55
237 240 238 239 253 260 274 288 303 325 337 338 356 6 11 6 6 8 5 3 1 7 6 349 295 217 163 147 127 102 87 85 79 77 68 60 56 54 55 55 53 50 52 55
226 234 229 230 242 250 259 272 286 309 336 331 348 6 8 4 4 12 10 3 2 6 3 355 340 254 210 176 161 148 140 127 111 96 85 72 66 61 55 54 56 54 52 53
223 226 221 224 235 242 251 265 279 295 310 323 335 1 11 6 3 2 8 7 6 8 8 360 344 315 241 215 184 173 174 184 184 152 134 107 79 72 65 58 54 54 54 53
219 220 219 221 230 237 248 260 269 283 289 304 338 359 9 3 5 5 7 8 6 9 9 6 355 325 286 240 223 196 188 193 202 209 186 175 150 100 78 66 62 57 53 55
224 219 216 224 226 233 243 252 264 279 288 297 328 353 355 357 1 7 7 11 13 8 4 5 0 342 301 258 243 230 204 202 204 210 219 202 197 193 194 122 78 66 62 55
217 217 216 216 221 232 239 244 252 265 276 282 294 331 344 349 358 5 7 10 10 10 5 1 360 353 324 299 241 243 236 211 209 210 215 223 211 208 210 217 207 172 100 72
224 210 209 213 221 229 234 240 249 259 266 267 275 305 326 347 356 359 6 7 6 11 10 3 355 354 342 312 286 242 243 239 217 214 215 217 225 219 215 217 221 224 217 216
212 217 221 220 221 225 230 239 247 255 259 265 269 277 300 331 344 350 358 2 4 8 9 8 3 357 350 331 308 271 242 244 242 223 217 220 220 226 224 220 222 225 230 227
Height
3179 3178 3176 3175 3173 3170 3167 3164 3160 3156 3149 3143 3138 3130 3125 3119 3112 3101 3093 3085 3077 3072 3067 3061 3053 3045 3036 3028 3019 3008 3000 2990 2979 2970 2961 2952 2941 2933 2927 2922 2915 2908 2903 2897
3177 3176 3175 3173 3171 3169 3166 3161 3157 3153 3149 3142 3137 3131 3127 3119 3108 3099 3092 3086 3078 3073 3068 3062 3054 3046 3039 3031 3022 3014 3005 2995 2984 2976 2967 2958 2949 2940 2934 2926 2919 2911 2903 2897
3176 3175 3173 3173 3171 3168 3164 3159 3155 3150 3145 3138 3136 3130 3124 3117 3109 3099 3092 3086 3079 3074 3069 3063 3056 3049 3042 3035 3027 3020 3011 3001 2990 2982 2974 2965 2958 2949 2940 2932 2924 2915 2906 2898
3175 3174 3174 3171 3169 3166 3161 3156 3153 3149 3144 3138 3133 3129 3123 3116 3107 3100 3092 3086 3081 3075 3072 3066 3060 3054 3047 3039 3032 3024 3016 3007 2998 2989 2981 2973 2965 2956 2948 2939 2930 2921 2912 2902
3175 3172 3171 3168 3167 3164 3159 3155 3151 3147 3142 3137 3133 3130 3125 3118 3111 3100 3094 3088 3082 3078 3073 3068 3062 3056 3050 3043 3037 3029 3020 3012 3004 2995 2988 2980 2971 2963 2955 2946 2937 2928 2920 2911
3173 3171 3169 3167 3165 3162 3157 3153 3149 3144 3139 3134 3131 3127 3122 3115 3109 3103 3095 3090 3083 3079 3076 3070 3065 3059 3054 3047 3041 3033 3024 3017 3011 3003 2995 2987 2978 2970 2962 2953 2945 2937 2929 2921
3171 3169 3168 3166 3163 3161 3158 3160 3148 3143 3138 3133 3129 3125 3121 3116 3111 3102 3095 3091 3085 3081 3078 3072 3068 3063 3057 3051 3045 3037 3030 3024 3018 3011 3002 2994 2987 2979 2971 2962 2954 2946 2937 2929
3170 3168 3167 3164 3162 3160 3159 3153 3147 3142 3137 3133 3130 3126 3122 3116 3110 3101 3095 3092 3087 3082 3079 3074 3070 3066 3060 3055 3049 3043 3037 3031 3025 3018 3010 3004 2997 2989 2981 2972 2962 2954 2946 2938
3171 3168 3164 3162 3160 3157 3155 3151 3146 3141 3137 3133 3129 3126 3122 3116 3109 3102 3096 3091 3087 3083 3080 3076 3073 3068 3064 3059 3054 3049 3044 3038 3032 3025 3019 3013 3006 2998 2990 2980 2971 2962 2954 2947
3167 3164 3162 3160 3158 3156 3153 3150 3145 3140 3136 3132 3129 3125 3121 3116 3109 3102 3097 3092 3089 3085 3082 3079 3075 3071 3067 3062 3059 3055 3050 3044 3038 3032 3025 3020 3014 3007 2998 2988 2980 2972 2965 2957
3164 3161 3159 3158 3156 3154 3151 3149 3144 3139 3135 3131 3128 3124 3120 3114 3108 3103 3097 3092 3090 3086 3082 3080 3077 3074 3070 3067 3063 3060 3054 3049 3044 3038 3032 3026 3021 3014 3005 2997 2990 2983 2975 2969
3160 3158 3156 3155 3153 3151 3150 3147 3143 3139 3134 3130 3127 3123 3119 3114 3109 3102 3098 3094 3090 3088 3084 3082 3079 3076 3073 3070 3067 3064 3060 3055 3049 3044 3039 3033 3027 3021 3014 3008 3001 2995 2987 2981
3158 3155 3154 3152 3151 3149 3148 3146 3143 3139 3134 3130 3126 3123 3119 3115 3109 3103 3098 3094 3091 3089 3085 3082 3081 3079 3076 3073 3071 3068 3064 3059 3055 3050 3046 3040 3035 3029 3024 3017 3011 3006 2999 2992
3155 3153 3151 3149 3148 3147 3146 3144 3142 3139 3134 3129 3125 3122 3118 3114 3109 3104 3099 3095 3091 3090 3087 3083 3082 3080 3078 3076 3073 3071 3068 3065 3060 3056 3052 3047 3042 3037 3033 3027 3021 3015 3008 3004
3151 3150 3149 3147 3145 3145 3144 3142 3140 3138 3133 3129 3126 3122 3119 3115 3110 3104 3099 3095 3091 3088 3087 3085 3083 3082 3080 3078 3076 3074 3073 3070 3065 3062 3058 3053 3049 3045 3040 3035 3029 3024 3019 3015
3148 3147 3146 3145 3144 3143 3142 3140 3139 3137 3133 3129 3125 3121 3118 3113 3108 3103 3099 3097 3094 3090 3088 3086 3084 3083 3082 3080 3079 3077 3076 3073 3070 3067 3063 3060 3056 3052 3048 3044 3038 3034 3030 3023
3144 3143 3143 3142 3141 3140 3139 3138 3137 3135 3132 3129 3125 3121 3118 3114 3109 3105 3101 3096 3093 3092 3090 3087 3085 3084 3083 3082 3081 3080 3079 3077 3075 3072 3069 3067 3063 3059 3055 3052 3048 3043 3038 3033
3140 3140 3139 3139 3138 3138 3137 3136 3134 3133 3131 3129 3125 3121 3118 3114 3110 3106 3100 3094 3092 3090 3089 3089 3086 3085 3084 3084 3083 3081 3081 3080 3079 3077 3074 3072 3069 3065 3062 3059 3055 3051 3047 3043
3135 3136 3136 3136 3135 3135 3134 3133 3132 3131 3129 3128 3124 3119 3117 3114 3110 3105 3101 3098 3093 3089 3088 3089 3088 3085 3084 3084 3084 3083 3083 3082 3082 3080 3079 3076 3074 3071 3068 3065 3062 3058 3055 3052
3131 3132 3132 3132 3132 3132 3132 3131 3130 3129 3127 3125 3123 3120 3118 3114 3111 3106 3101 3097 3093 3091 3089 3086 3086 3086 3084 3084 3084 3084 3084 3083 3084 3083 3082 3080 3078 3076 3074 3071 3068 3065 3062 3059
3126 3127 3128 3128 3129 3129 3129 3128 3127 3126 3126 3123 3121 3118 3116 3114 3110 3106 3102 3097 3094 3091 3087 3086 3086 3086 3086 3084 3084 3084 3085 3085 3084 3085 3084 3083 3082 3080 3078 3076 3074 3071 3069 3065
3122 3123 3124 3125 3125 3125 3125 3125 3125 3124 3124 3122 3120 3118 3115 3113 3110 3107 3102 3099 3094 3091 3088 3085 3084 3086 3086 3085 3083 3083 3084 3085 3085 3084 3085 3085 3084 3082 3081 3080 3078 3076 3074 3071
3117 3118 3120 3121 3121 3122 3122 3122 3122 3122 3121 3120 3119 3117 3114 3113 3110 3107 3103 3100 3095 3092 3087 3084 3083 3083 3083 3085 3084 3082 3082 3083 3084 3085 3084 3085 3084 3084 3083 3082 3081 3079 3078 3076
3112 3113 3115 3116 3117 3118 3118 3119 3119 3119 3118 3117 3116 3115 3113 3111 3109 3105 3102 3098 3094 3090 3087 3085 3081 3080 3080 3081 3084 3083 3081 3081 3082 3083 3084 3084 3084 3084 3084 3083 3082 3081 3080 3079
3107 3108 3109 3111 3112 3113 3114 3115 3115 3116 3115 3115 3114 3113 3112 3110 3108 3105 3101 3099 3095 3090 3087 3084 3081 3079 3078 3078 3078 3081 3081 3079 3080 3081 3082 3083 3083 3083 3083 3083 3082 3082 3081 3081
3103 3104 3105 3107 3108 3108 3109 3110 3111 3112 3112 3111 3111 3110 3109 3108 3106 3104 3101 3099 3095 3090 3087 3084 3081 3077 3075 3074 3075 3076 3079 3079 3077 3078 3079 3080 3082 3081 3082 3082 3082 3082 3081 3081
3097 3098 3099 3101 3102 3103 3104 3106 3107 3108 3108 3108 3108 3107 3107 3106 3105 3103 3101 3099 3095 3091 3088 3084 3081 3078 3075 3073 3071 3071 3073 3075 3077 3075 3075 3077 3078 3079 3080 3080 3081 3081 3081 3080